Location: Newark
(51.3318°N, 0.0053°E)
Time: 21:32:02
(UTC+00:00)

DIWATA 2B (PO-101) - Pass Details

Date: 11 July 2022
Orbit: 583 x 599 km, 98.0° (Epoch: 16 August)

Event Time Altitude Azimuth Distance (km) Brightness Sun altitude
Exits shadow 03:03:49 - 226° (SW) 2,062 ? -6.8°
Reaches altitude 10° 03:04:17 10° 231° (SW) 1,939 ? -6.7°
Maximum altitude 03:06:56 16° 271° (W) 1,577 ? -6.5°
Drops below altitude 10° 03:09:36 10° 310° (NW) 1,947 ? -6.2°
Sets 03:12:31 0° 332° (NNW) 2,854 ? -5.9°
